Retour au catalogue

USA 411

ActifMilitaireVLEO
NORAD 61032·PAYLOAD·🇺🇸 United States

Lancé Sep 6, 2024 depuis Vandenberg Space Force Base

Loading…

Prochains Passages (prochaines 24 heures)

TLE

PériméSource: Mike McCants

Époque: Sep 5, 2026, 20:58 UTC

1 61032U 24160M   26248.87381420 0.00000000  00000-0  00000-0 0    03
2 61032  70.0205 154.2192 0003000 210.7039 149.2961 14.96713564    05

Suivez USA 411 en temps réel avec AllMySat

Download on the App Store